Find Starlink 31454

NORAD ID: 59014 Int'l Des: 2024-036 Owner: SPXS Country: US Constellation: starlink operational
LEOCIRCULAR

Live Position

Loading 3D Globe...

About Starlink 31454

Description loading...

Upcoming Passes

Passes for default location (London). Set your location on the main map for personalized predictions.

Altitude History

Loading altitude history...

Two-Line Element Set

1 59014U 24036S 26126.39167914 .00003519 00000-0 13088-3 0 9992
2 59014 53.1588 170.3919 0001470 75.7950 284.3214 15.30197412124156
Epoch: May 6, 2026 • Age: 8 hours

Current Status

Altitude 492.7 km
Velocity 7.62 km/s
Sub-Earth Point -48.59°S, 7.32°W
Launch Date Feb 23, 2024
Age 2.1 years
Type internet

Technical Details

Classification Payload
Mass 730.00 kg
Dry Mass 700.00 kg
Total Mass 730.00 kg
Length 0.30 m
Diameter 4.10 m
Span 29.00 m
Shape Box + pan
Manufacturer SPXS
Bus Type Starlink V2M
Phase Status In Orbit
Owner/State SPXS/US

Most Searched